Location: Boussac
(44.2782°N, 2.3665°E)
Time: 11:09:45
(UTC+00:00)

Spot 4 - Pass Details

Date: 15 May 2026
Orbit: 698 x 714 km, 98.2° (Epoch: 6 June)

Event Time Altitude Azimuth Distance (km) Brightness Sun altitude
Exits shadow 23:36:11 51° 280° (W) 889 4.3 -26.6°
Drops below altitude 10° 23:40:28 10° 337° (NNW) 2,189 7.2 -26.7°
Sets 23:42:48 0° 342° (NNW) 3,115 8.3 -26.7°
